Figure 1.8. The Key Features of the Current Corporate Credit Cycle,,,,,,,,,,,,,,
,,,,,,,,,,,,,,
,,,,,,,,,,,,,,
1. Nonfinancial Business Financing: Loans and Debt Securities,,,,,,,,,,3. BBB-Rated Bonds in Investment Grade Indices,,,,
,,,,,,,,,,(Percent of total; trillions of US dollars),,,,
,,,,,,,,,,,,,,
United States,,,,Euro area,,,,,,,,,,
(Trillions of US dollars),,,,(Trillions of euros),,,,,,,,,,
,Loans,Capital market financing,,,Loans,Capital market financing,,,,,US face value,Share of US index,Europe face value,Share of Europe index
Q1-05,2.103,3.016,,Q1-05,6.255,0.649,,,,1/31/2000,0.3597,34.4,0.0202,5.13
Q2-05,2.183,3.001,,Q2-05,6.384,0.674,,,,2/29/2000,0.3632,34.31,0.0232,5.71
Q3-05,2.208,3.02,,Q3-05,6.43,0.679,,,,3/31/2000,0.3714,34.54,0.0261,6.25
Q4-05,2.3,2.998,,Q4-05,6.577,0.654,,,,4/30/2000,0.3738,34.75,0.0253,6.24
Q1-06,2.357,3.029,,Q1-06,6.812,0.645,,,,5/31/2000,0.3749,34.49,0.0275,6.49
Q2-06,2.444,3.079,,Q2-06,6.969,0.663,,,,6/30/2000,0.3778,34.1,0.0297,6.67
Q3-06,2.477,3.093,,Q3-06,6.965,0.663,,,,7/31/2000,0.3776,33.44,0.0301,6.76
Q4-06,2.578,3.148,,Q4-06,7.101,0.669,,,,8/31/2000,0.3859,33.67,0.0306,7.07
Q1-07,2.667,3.202,,Q1-07,7.238,0.665,,,,9/30/2000,0.3967,34.12,0.0311,7.65
Q2-07,2.788,3.304,,Q2-07,7.465,0.696,,,,10/31/2000,0.4014,34.27,0.0304,7.69
Q3-07,2.972,3.305,,Q3-07,7.575,0.684,,,,11/30/2000,0.3993,33.89,0.0332,7.99
Q4-07,3.122,3.348,,Q4-07,7.975,0.665,,,,12/31/2000,0.3958,33.31,0.036,7.99
Q1-08,3.213,3.399,,Q1-08,8.154,0.671,,,,1/31/2001,0.4083,33.25,0.0396,8.73
Q2-08,3.291,3.493,,Q2-08,8.32,0.679,,,,2/28/2001,0.4175,33.23,0.0442,9.24
Q3-08,3.371,3.534,,Q3-08,8.484,0.69,,,,3/31/2001,0.4348,34.29,0.0457,9.53
Q4-08,3.385,3.538,,Q4-08,8.554,0.71,,,,4/30/2001,0.4444,34.4,0.058,11.38
Q1-09,3.233,3.626,,Q1-09,8.591,0.745,,,,5/31/2001,0.4647,34.81,0.0683,13.53
Q2-09,3.12,3.68,,Q2-09,8.563,0.791,,,,6/30/2001,0.4778,35.37,0.0718,13.66
Q3-09,2.987,3.697,,Q3-09,8.447,0.842,,,,7/31/2001,0.4924,35.83,0.079,14.07
Q4-09,2.804,3.714,,Q4-09,8.506,0.84,,,,8/31/2001,0.5057,36.23,0.0834,14.13
Q1-10,2.714,3.794,,Q1-10,8.501,0.889,,,,9/30/2001,0.5084,36.22,0.0979,16.61
Q2-10,2.646,3.822,,Q2-10,8.608,0.885,,,,10/31/2001,0.5601,38.61,0.1023,17.22
Q3-10,2.628,3.92,,Q3-10,8.609,0.892,,,,11/30/2001,0.6009,40.55,0.1198,19.89
Q4-10,2.528,3.951,,Q4-10,8.747,0.883,,,,12/31/2001,0.6097,41.15,0.1219,20.27
11:Q1,2.534,4.013,,11:Q1,8.803,0.842,,,,1/31/2002,0.6647,44.58,0.1315,22.36
Q2-11,2.587,4.06,,Q2-11,8.901,0.857,,,,2/28/2002,0.6985,46.13,0.1438,23.59
Q3-11,2.637,4.125,,Q3-11,8.943,0.879,,,,3/31/2002,0.7166,46.32,0.1454,23.38
Q4-11,2.709,4.156,,Q4-11,9.269,0.883,,,,4/30/2002,0.7342,46.77,0.1688,25.58
Q1-12,2.716,4.254,,Q1-12,9.349,0.948,,,,5/31/2002,0.6993,45.57,0.1807,25.82
Q2-12,2.76,4.319,,Q2-12,9.438,0.98,,,,6/30/2002,0.6985,45.1,0.1954,25.83
Q3-12,2.827,4.419,,Q3-12,9.419,1.023,,,,7/31/2002,0.6832,44.49,0.186,25.07
Q4-12,2.899,4.505,,Q4-12,9.275,1.055,,,,8/31/2002,0.6894,44.5,0.184,24.85
Q1-13,2.899,4.595,,Q1-13,9.274,1.059,,,,9/30/2002,0.6849,43.74,0.1851,24.46
Q2-13,2.972,4.649,,Q2-13,9.266,1.053,,,,10/31/2002,0.7314,46.67,0.1987,25.99
Q3-13,2.976,4.777,,Q3-13,9.221,1.082,,,,11/30/2002,0.7268,46.2,0.1986,25.71
Q4-13,3.027,4.798,,Q4-13,9.148,1.089,,,,12/31/2002,0.7199,45.7,0.2097,25.82
Q1-14,3.069,4.906,,Q1-14,9.322,1.117,,,,1/31/2003,0.7251,45.35,0.2319,27.29
Q2-14,3.116,4.974,,Q2-14,9.399,1.134,,,,2/28/2003,0.7238,45.1,0.223,25.88
Q3-14,3.185,5.045,,Q3-14,9.414,1.176,,,,3/31/2003,0.7301,44.99,0.2256,25.68
Q4-14,3.263,5.121,,Q4-14,9.507,1.241,,,,4/30/2003,0.742,45.65,0.2359,25.73
Q1-15,3.321,5.26,,Q1-15,10.195,1.315,,,,5/31/2003,0.753,45.78,0.2556,25.83
Q2-15,3.366,5.413,,Q2-15,10.162,1.266,,,,6/30/2003,0.7557,45.97,0.2512,29.74
Q3-15,3.354,5.519,,Q3-15,10.226,1.261,,,,7/31/2003,0.7629,46.06,0.2462,29.7
Q4-15,3.401,5.547,,Q4-15,10.218,1.27,,,,8/31/2003,0.7619,45.99,0.2398,29.53
Q1-16,3.49,5.687,,Q1-16,10.359,1.29,,,,9/30/2003,0.7657,45.93,0.2583,29.59
Q2-16,3.483,5.776,,Q2-16,10.476,1.329,,,,10/31/2003,0.7688,45.94,0.2563,29.32
Q3-16,3.525,5.846,,Q3-16,10.468,1.385,,,,11/30/2003,0.7776,45.82,0.2707,29.52
Q4-16,3.535,5.835,,Q4-16,10.417,1.384,,,,12/31/2003,0.7909,45.72,0.2956,28.46
17:Q1,3.636,5.959,,17:Q1,10.575,1.413,,,,1/31/2004,0.7899,45.59,0.2935,28.25
Q2-17,3.7,6.022,,Q2-17,10.535,1.409,,,,2/29/2004,0.7907,45.42,0.283,26.98
Q3-17,3.746,6.111,,Q3-17,10.498,1.442,,,,3/31/2004,0.7922,45.08,0.2824,27.13
Q4-17,3.794,6.138,,Q4-17,10.495,1.436,,,,4/30/2004,0.7804,44.47,0.2753,27.24
Q1-18,3.792,6.219,,Q1-18,10.609,1.453,,,,5/31/2004,0.7854,44.75,0.2833,27.44
Q2-18,4.177,6.218,,Q2-18,10.72,1.469,,,,6/30/2004,0.7849,44.98,0.2863,27.48
Q3-18,4.216,6.236,,Q3-18,10.763,1.486,,,,7/31/2004,0.7721,44.63,0.2837,27.65
,,,,,,,,,,8/31/2004,0.7639,44.36,0.2882,27.62
,,,,,,,,,,9/30/2004,0.7663,44.19,0.2941,27.42
,,,,,,,,,,10/31/2004,0.7812,44.72,0.3043,27.27
,,,,,,,,,,11/30/2004,0.7804,44.19,0.3149,27.17
,,,,,,,,,,12/31/2004,0.7198,40,0.2892,26.65
,,,,,,,,,,1/31/2005,0.7175,39.77,0.2816,26.85
,,,,,,,,,,2/28/2005,0.701,38.8,0.2609,24.5
,,,,,,,,,,3/31/2005,0.6881,38.1,0.2301,21.87
,,,,,,,,,,4/30/2005,0.6776,37.79,0.2194,21.17
,,,,,,,,,,5/31/2005,0.6394,36.7,0.1888,19.53
,,,,,,,,,,6/30/2005,0.649,36.7,0.1949,19.98
,,,,,,,,,,7/31/2005,0.6519,36.62,0.19,19.81
,,,,,,,,,,8/31/2005,0.6452,36.26,0.1926,19.72
,,,,,,,,,,9/30/2005,0.6472,36.23,0.1886,19.69
,,,,,,,,,,10/31/2005,0.6503,36.25,0.1881,19.69
,,,,,,,,,,11/30/2005,0.6561,36.21,0.1884,19.84
,,,,,,,,,,12/31/2005,0.6171,34.68,0.1843,19.43
,,,,,,,,,,1/31/2006,0.6283,34.97,0.1883,19.4
,,,,,,,,,,2/28/2006,0.632,35.02,0.1853,19.23
,,,,,,,,,,3/31/2006,0.6372,34.98,0.1967,19.76
,,,,,,,,,,4/30/2006,0.6431,35.24,0.2012,19.33
,,,,,,,,,,5/31/2006,0.6441,34.82,0.2097,19.37
,,,,,,,,,,6/30/2006,0.65,35.13,0.2095,19.31
,,,,,,,,,,7/31/2006,0.6663,35.86,0.214,19.76
,,,,,,,,,,8/31/2006,0.6714,35.61,0.2202,20.29
,,,,,,,,,,9/30/2006,0.6811,35.76,0.2224,20.36
,,,,,,,,,,10/31/2006,0.6748,34.96,0.2292,20.61
,,,,,,,,,,11/30/2006,0.6719,34.7,0.2421,20.69
,,,,,,,,,,12/31/2006,0.6824,34.8,0.244,20.76
,,,,,,,,,,1/31/2007,0.6836,34.94,0.2428,20.58
,,,,,,,,,,2/28/2007,0.6756,34.66,0.2494,20.46
,,,,,,,,,,3/31/2007,0.6945,35.21,0.2604,21.25
,,,,,,,,,,4/30/2007,0.6998,35.28,0.2738,21.78
,,,,,,,,,,5/31/2007,0.7052,34.9,0.2667,21.13
,,,,,,,,,,6/30/2007,0.7171,35.01,0.2694,20.69
,,,,,,,,,,7/31/2007,0.7389,36.22,0.276,21.11
,,,,,,,,,,8/31/2007,0.7539,36.55,0.2775,21.37
,,,,,,,,,,9/30/2007,0.7683,36.21,0.2912,20.93
,,,,,,,,,,10/31/2007,0.7613,35.06,0.2753,18.78
,,,,,,,,,,11/30/2007,0.7626,34.86,0.2782,18.67
,,,,,,,,,,12/31/2007,0.7776,34.59,0.2752,18.51
,,,,,,,,,,1/31/2008,0.7714,34.07,0.2784,18.4
,,,,,,,,,,2/29/2008,0.7729,33.77,0.2847,18.39
,,,,,,,,,,3/31/2008,0.7911,34.21,0.3005,18.42
,,,,,,,,,,4/30/2008,0.8049,33.54,0.3026,18.17
,,,,,,,,,,5/31/2008,0.8073,32.58,0.3329,19.23
,,,,,,,,,,6/30/2008,0.8396,33.21,0.3392,18.68
,,,,,,,,,,7/31/2008,0.8353,32.94,0.327,18.1
,,,,,,,,,,8/31/2008,0.844,33.03,0.3054,17.79
,,,,,,,,,,9/30/2008,0.8424,33.69,0.2994,18.01
,,,,,,,,,,10/31/2008,0.8457,33.97,0.2736,18.45
,,,,,,,,,,11/30/2008,0.8592,34.27,0.2737,18.31
,,,,,,,,,,12/31/2008,0.8959,35.88,0.2982,17.76
,,,,,,,,,,1/31/2009,0.9225,36.8,0.2873,18.19
,,,,,,,,,,2/28/2009,0.9468,36.93,0.3016,18.86
,,,,,,,,,,3/31/2009,0.9673,37.19,0.3228,18.72
,,,,,,,,,,4/30/2009,0.971,37.57,0.3279,18.79
,,,,,,,,,,5/31/2009,0.997,37.84,0.3589,18.49
,,,,,,,,,,6/30/2009,1.0206,38.32,0.3821,19.44
,,,,,,,,,,7/31/2009,1.0299,38.23,0.4001,19.77
,,,,,,,,,,8/31/2009,1.0413,38.29,0.4123,20.22
,,,,,,,,,,9/30/2009,1.0594,38.42,0.4261,19.99
,,,,,,,,,,10/31/2009,1.0774,38.67,0.4344,20.12
,,,,,,,,,,11/30/2009,1.0917,38.54,0.4463,20.24
,,,,,,,,,,12/31/2009,1.0933,38.59,0.4397,20.74
,,,,,,,,,,1/31/2010,1.0832,37.95,0.4331,20.75
,,,,,,,,,,2/28/2010,1.1077,38.79,0.4419,21.62
,,,,,,,,,,3/31/2010,1.1236,38.75,0.4517,22.17
,,,,,,,,,,4/30/2010,1.1361,38.89,0.4573,23.13
,,,,,,,,,,5/31/2010,1.1465,39.15,0.4119,22.86
,,,,,,,,,,6/30/2010,1.1436,38.82,0.4022,22.64
,,,,,,,,,,7/31/2010,1.149,38.76,0.4249,22.54
,,,,,,,,,,8/31/2010,1.1618,38.57,0.4122,22.41
,,,,,,,,,,9/30/2010,1.1875,38.52,0.4463,22.37
,,,,,,,,,,10/31/2010,1.1997,38.3,0.4726,22.76
,,,,,,,,,,11/30/2010,1.2191,38.6,0.4432,22.82
,,,,,,,,,,12/31/2010,1.2276,38.51,0.4591,23
,,,,,,,,,,1/31/2011,1.2593,38.71,0.4735,23.21
,,,,,,,,,,2/28/2011,1.267,38.67,0.4766,23.18
,,,,,,,,,,3/31/2011,1.2801,38.72,0.5087,23.98
,,,,,,,,,,4/30/2011,1.2869,38.56,0.5375,24.09
,,,,,,,,,,5/31/2011,1.3103,38.49,0.5326,24.46
,,,,,,,,,,6/30/2011,1.2963,38,0.5216,23.84
,,,,,,,,,,7/31/2011,1.2949,37.68,0.4959,23.1
,,,,,,,,,,8/31/2011,1.314,38.05,0.4968,23.39
,,,,,,,,,,9/30/2011,1.3138,37.84,0.4626,23.6
,,,,,,,,,,10/31/2011,1.3314,38.39,0.5081,25.03
,,,,,,,,,,11/30/2011,1.3561,38.47,0.4947,25.16
,,,,,,,,,,12/31/2011,1.428,40.37,0.5294,27.86
,,,,,,,,,,1/31/2012,1.4458,40.58,0.5364,27.82
,,,,,,,,,,2/29/2012,1.4671,40.72,0.5816,29.41
,,,,,,,,,,3/31/2012,1.4988,40.97,0.5911,29.99
,,,,,,,,,,4/30/2012,1.508,41.16,0.5802,29.75
,,,,,,,,,,5/31/2012,1.5627,42.06,0.5513,30.98
,,,,,,,,,,6/30/2012,1.5964,42.7,0.611,33.88
,,,,,,,,,,7/31/2012,1.6209,43.08,0.6355,36.2
,,,,,,,,,,8/31/2012,1.6455,43.36,0.6406,35.61
,,,,,,,,,,9/30/2012,1.6856,43.71,0.6774,36.17
,,,,,,,,,,10/31/2012,1.7263,44.03,0.7064,37.21
,,,,,,,,,,11/30/2012,1.7455,43.94,0.703,36.87
,,,,,,,,,,12/31/2012,1.7685,44.52,0.7207,38.22
,,,,,,,,,,1/31/2013,1.7958,44.61,0.7481,38.8
,,,,,,,,,,2/28/2013,1.7809,44.04,0.7002,38.32
,,,,,,,,,,3/31/2013,1.7913,43.85,0.6834,38.03
,,,,,,,,,,4/30/2013,1.8248,44.22,0.7224,39.19
,,,,,,,,,,5/31/2013,1.8644,44.5,0.7128,39.42
,,,,,,,,,,6/30/2013,1.847,44.22,0.7218,39.93
,,,,,,,,,,7/31/2013,1.8263,43.7,0.7365,40.03
,,,,,,,,,,8/31/2013,1.861,44.21,0.7373,40.26
,,,,,,,,,,9/30/2013,1.9471,45.47,0.7697,40.72
,,,,,,,,,,10/31/2013,1.9636,45.42,0.7944,41.43
,,,,,,,,,,11/30/2013,1.9925,45.67,0.7914,40.7
,,,,,,,,,,12/31/2013,1.9862,45.38,0.8095,40.89
,,,,,,,,,,1/31/2014,1.9941,45.36,0.7869,40.58
,,,,,,,,,,2/28/2014,1.9953,45.21,0.827,41.28
,,,,,,,,,,3/31/2014,2.0127,45.29,0.8275,41.32
,,,,,,,,,,4/30/2014,2.0122,44.95,0.828,40.84
,,,,,,,,,,5/31/2014,2.0298,44.7,0.8222,40.88
,,,,,,,,,,6/30/2014,2.0483,44.83,0.838,41.15
,,,,,,,,,,7/31/2014,2.051,44.61,0.8375,42.17
,,,,,,,,,,8/31/2014,2.0776,45.09,0.8288,42.6
,,,,,,,,,,9/30/2014,2.0869,44.99,0.7978,42.22
,,,,,,,,,,10/31/2014,2.079,44.78,0.7922,42.29
,,,,,,,,,,11/30/2014,2.098,44.54,0.7937,41.97
,,,,,,,,,,12/31/2014,2.0984,44.35,0.7677,42.11
,,,,,,,,,,1/31/2015,2.1102,44.51,0.7093,41.45
,,,,,,,,,,2/28/2015,2.1066,44.54,0.7138,41.86
,,,,,,,,,,3/31/2015,2.1308,44.41,0.6993,42.03
,,,,,,,,,,4/30/2015,2.1456,44.59,0.7514,42.62
,,,,,,,,,,5/31/2015,2.1831,44.19,0.7534,43.55
,,,,,,,,,,6/30/2015,2.2646,45.13,0.7703,43.28
,,,,,,,,,,7/31/2015,2.327,45.69,0.7613,43.34
,,,,,,,,,,8/31/2015,2.3323,45.64,0.7849,43.58
,,,,,,,,,,9/30/2015,2.3429,45.54,0.7854,43.31
,,,,,,,,,,10/31/2015,2.3734,45.83,0.7671,43
,,,,,,,,,,11/30/2015,2.4074,45.91,0.7536,43.5
,,,,,,,,,,12/31/2015,2.4261,46.02,0.7854,43.89
,,,,,,,,,,1/31/2016,2.4256,45.69,0.7861,44.57
,,,,,,,,,,2/29/2016,2.37,44.85,0.7786,44.13
,,,,,,,,,,3/31/2016,2.3664,44.54,0.8328,44.28
,,,,,,,,,,4/30/2016,2.3728,44.36,0.8689,45.07
,,,,,,,,,,5/31/2016,2.4573,45.43,0.8639,45.07
,,,,,,,,,,6/30/2016,2.4971,45.81,0.8638,45
,,,,,,,,,,7/31/2016,2.5403,45.91,0.8731,45.08
,,,,,,,,,,8/31/2016,2.565,45.86,0.878,45.23
,,,,,,,,,,9/30/2016,2.5907,45.89,0.8958,45.29
,,,,,,,,,,10/31/2016,2.5853,45.65,0.8749,45.08
,,,,,,,,,,11/30/2016,2.6768,47.01,0.887,46.58
,,,,,,,,,,12/31/2016,2.6791,47.17,0.8898,46.76
,,,,,,,,,,1/31/2017,2.7369,47.77,0.9357,47.43
,,,,,,,,,,2/28/2017,2.706,47.11,0.9203,47.49
,,,,,,,,,,3/31/2017,2.7507,47.43,0.9501,47.9
,,,,,,,,,,4/30/2017,2.773,47.75,0.9748,47.87
,,,,,,,,,,5/31/2017,2.7839,47.65,1.0181,47.8
,,,,,,,,,,6/30/2017,2.796,47.6,1.054,48.27
,,,,,,,,,,7/31/2017,2.7992,47.44,1.1032,48.36
,,,,,,,,,,8/31/2017,2.8526,47.73,1.1262,48.86
,,,,,,,,,,9/30/2017,2.8755,47.63,1.1354,49.13
,,,,,,,,,,10/31/2017,2.9041,47.67,1.1182,48.89
,,,,,,,,,,11/30/2017,2.9116,47.6,1.1517,48.97
,,,,,,,,,,12/31/2017,2.9073,47.5,1.1684,48.95
,,,,,,,,,,1/31/2018,2.9133,47.44,1.2243,49.53
,,,,,,,,,,2/28/2018,2.9299,47.66,1.2113,49.66
,,,,,,,,,,3/31/2018,2.9627,47.94,1.2334,49.21
,,,,,,,,,,4/30/2018,2.9694,47.88,1.2006,48.8
,,,,,,,,,,5/31/2018,2.9789,47.8,1.1583,48.45
,,,,,,,,,,6/30/2018,3.0551,48.65,1.1714,48.68
,,,,,,,,,,7/31/2018,3.0492,48.52,1.1774,48.64
,,,,,,,,,,8/31/2018,3.0951,48.95,1.1822,48.98
,,,,,,,,,,9/30/2018,3.136,49.21,1.2005,48.74
,,,,,,,,,,10/31/2018,3.1422,49.25,1.1755,48.68
